Погода в Осыпном Бугре

Россия / Астраханская область     46°17′47″N   48°03′11″E
темп.,
°C
ветер,
м/с
пор.,
м/с
влажн.,
%
обл.,
%
осадки,
мм/ч
давл.,
гПа
погр.,
м
18 апреля, вс
вс1801:00+16с4657100 0.0 1020375
04:00+15сз3464100 0.1 1020327
07:00+14ссв3477100 1.5 1020286
10:00+16св2264100 1.5 1019732
13:00+19с325192 0.0 10191391
16:00+17с4358100 0.1 1018708
19:00+17с225563 0.0 1018460
22:00+16з125894 0.0 101890
19 апреля, пн
пн1901:00+15зсз3569100 0.0 1018227
04:00+14сз237199 0.0 1017105
07:00+14сз237187 0.0 1018150
10:00+17з2261100 0.0 1018567
13:00+19з1252100 0.0 10171242
16:00+20зюз2251100 0.0 10161145
19:00+19зюз3455100 0.0 1016725
22:00+15юз5783100 0.5 1017357
20 апреля, вт
вт2001:00+15юз2387100 0.5 1016221
04:00+14с0189100 0.8 1016120
07:00+14вюв3489100 0.0 1016231
10:00+17вюв6872100 0.0 1015728
13:00+20вюв8849100 0.0 10151272
16:00+21вюв101138100 0.0 10131080
19:00+17в8154957 0.0 1012639
22:00+15вюв101961100 0.0 1012537
21 апреля, ср
ср2101:00+16вюв71554100 0.0 1014685
04:00+14вюв91660100 0.0 1015583
07:00+14вюв81663100 0.1 1016561
10:00+13юв71079100 0.9 1019605
13:00+12в4588100 3.8 1020340
16:00+13в5680100 3.8 1021657
19:00+13в697995 0.0 1022545
22:00+12в61280100 0.0 1022482
22 апреля, чт
чт2201:00+13всв51164100 0.0 1021432
04:00+14вюв51053100 0.0 1021365
07:00+14вюв71351100 0.0 1021605
10:00+11в71179100 11.1 1022444
13:00+11в81369100 1.4 1022533
16:00+13в5860100 1.5 1022501
19:00+12ссв3463100 0.0 1023106
22:00+11с466569 0.0 1022170